Tracking 19242 objects as of 20-Sep-2018
HD Live streaming from Space Station
objects crossing your sky now

FENGYUN 1C DEB

Track FENGYUN 1C DEB now!
10-day predictions


NORAD ID: 38807
Int'l Code: 1999-025EUX
Perigee: 834.1 km
Apogee: 1,186.8 km
Inclination: 98.5 °
Period: 105.2 minutes
Semi major axis: 7381 km
RCS: 0.002 m2 (small)
Launch date: May 10, 1999
Source: People's Republic of China (PRC)
Launch site: Taiyaun Space Center, China (TSC)

Note: This is SATELLITE DEBRIS
aabbcc
Your satellite tracking list
Your tracking list is empty




NASA's NSSDC Master Catalog

Two Line Element Set (TLE):
1 38807U 99025EUX 18262.81915040  .00000877  00000-0  86626-3 0  9991
2 38807  98.4633 120.7197 0238880  11.7819 348.8786 13.68960753395610
Source of the keplerian elements: AFSPC